Regional Weather Roundup
Issued by NWS Sterling, VA

Home | Current Version | Previous Version | Graphics & Text | Print | Product List | Glossary On
Versions: 1 2 3 4 5 6 7 8 9 10 11 12 13 14 15 16 17 18 19 20 21 22 23 24 25 26 27 28 29 30 31 32 33 34 35 36 37 38 39 40 41 42 43 44 45 46 47 48 49 50
000
ASUS41 KLWX 291010
RWRLWX

REGIONAL WEATHER ROUNDUP
NATIONAL WEATHER SERVICE BALTIMORE MD/WASHINGTON DC
600 AM EDT FRI MAY 29 2015

Note: "FAIR" indicates few or no clouds below 12,000 feet
with no significant weather and/or obstructions to visibility.
 TC=TEMPERATURE CELSIUS

 * =Non NWS site. Station does not report precipitation (e.g. rain,
    snow, etc.), thunder, or fog.

DCZ001-MDZ009-015-VAZ040>042-051-053>054-291100-
WASHINGTON METRO

CITY           SKY/WX    TMP DP  RH WIND       PRES   REMARKS
WASHINGTON NAT PTCLDY    75  68  78 NE10      30.22R
DULLES         PTCLDY    70  67  90 NE3       30.22R
ANDREWS AFB    PTCLDY    69  69  99 NE7       30.22R
FT BELVOIR     MOCLDY    71  69  93 VRB2      30.21R
QUANTICO       MOCLDY    72  68  87 E8        30.21R
COLLEGE PARK*  PTCLDY    70  64  83 NE6       30.22S
LEESBURG*      MOCLDY    68  63  83 N6        30.25R
MANASSAS*      CLEAR     66  66 100 N3        30.21S
GAITHERSBURG*  CLEAR     66  55  68 CALM      30.28R

$$

MDZ006>007-011-014-291100-
BALTIMORE METRO

CITY           SKY/WX    TMP DP  RH WIND       PRES   REMARKS
BWI AIRPORT    PTCLDY    70  59  68 NE8       30.23R
MD SCIENCE CTR   N/A     71  55  56 MISG      30.25R
MARTIN STATE   PTCLDY    72  61  68 CALM      30.25R
ANNAPOLIS      CLOUDY    71  61  70 NE7       30.22R
FORT MEADE*    CLOUDY    68  59  73 E7        30.26R

$$

MDZ012-015-019>023-291100-
MARYLAND EASTERN SHORE

CITY           SKY/WX    TMP DP  RH WIND       PRES   REMARKS
OCEAN CITY     MOCLDY    64  62  93 S5        30.23R
SALISBURY      PTCLDY    63  61  93 CALM      30.22R
CAMBRIDGE*     MOCLDY    72  68  88 NE5       30.22R
EASTON*        MOCLDY    72  72 100 CALM      30.26R

$$

MDZ017>025-291100-
SOUTHERN MARYLAND

CITY           SKY/WX    TMP DP  RH WIND       PRES   REMARKS
PATUXENT RIVER PTCLDY    68  67  96 E3        30.21R FOG
ST INIGOES     CLEAR     71  66  84 S3        30.20R
LEONARDTOWN*   MOCLDY    66  64  94 N3        30.23R

$$

MDZ003>005-291100-
NORTH CENTRAL MARYLAND

CITY           SKY/WX    TMP DP  RH WIND       PRES   REMARKS
FREDERICK*     PTCLDY    64  59  82 N5        30.28R
HAGERSTOWN APT PTCLDY    64  54  69 N7        30.26R
WESTMINSTER*   CLEAR     66  54  63 E7        30.26F

$$

MDZ501>502-291100-
WESTERN MARYLAND

CITY           SKY/WX    TMP DP  RH WIND       PRES   REMARKS
OAKLAND*       CLEAR     57  57 100 E9        30.31R
CUMBERLAND*    MOCLDY    64  59  82 CALM      30.29R

$$

VAZ025>031-291100-
SHENANDOAH VALLEY

CITY           SKY/WX    TMP DP  RH WIND       PRES   REMARKS
WINCHESTER*    CLEAR     66  54  63 CALM      30.25R
FRONT ROYAL*   FAIR      63  61  94 CALM      30.24R
LURAY*         FOG       63  63 100 CALM      30.24R VSB<1/4
NEW MARKET*    CLOUDY    61  61 100 CALM      30.23R VSB<1/4
STAUNTON*      FOG       63  61  95 CALM      30.26R VSB 1/4
WAYNESBORO*    FAIR      60  60  99 CALM      30.25R

$$

WVZ021-048>050-054>055-291100-
EASTERN WEST VIRGINIA PANHANDLE

CITY           SKY/WX    TMP DP  RH WIND       PRES   REMARKS
MARTINSBURG    PTCLDY    67  54  63 N5        30.25R
PETERSBURG*    PTCLDY    60  58  92 CALM      30.28R FOG

$$

VAZ036>039-050-291100-
CENTRAL FOOTHILLS

CITY           SKY/WX    TMP DP  RH WIND       PRES   REMARKS
CHARLOTTESVILL CLEAR     63  62  97 CALM      30.22R
CULPEPER*      PTCLDY    64  64  99 CALM      30.22R FOG
ORANGE*        FOG       64  63  94 CALM      30.23R VSB 1/4
GORDONSVILLE*    N/A     62  62  99 CALM      30.21R FOG
WARRENTON*     MOCLDY    67  67 100 NE5       30.21R

$$

VAZ055>057-291100-
NORTH AND CENTRAL PIEDMONT

CITY           SKY/WX    TMP DP  RH WIND       PRES   REMARKS
FREDERICKSBRG* FOG       69  69 100 CALM      30.19S VSB 3/4
STAFFORD*      FOG       66  65  97 CALM      30.25R VSB<1/4

$$

NCZ024-NYZ072-PAZ021-071-VAZ022-071-291100-
OTHER REGIONAL OBSERVATIONS

CITY           SKY/WX    TMP DP  RH WIND       PRES   REMARKS
NEW YORK CITY  CLEAR     65  53  65 VRB5      30.30R
PHILADELPHIA   PTCLDY    66  55  67 E7        30.27R
PITTSBURGH     MOCLDY    61  54  77 E5        30.22R
ROANOKE        MOCLDY    65  63  93 CALM      30.25R
RICHMOND       PTCLDY    68  65  90 SE3       30.20R
RALEIGH        PTCLDY    68  64  87 CALM      30.21R

$$

ANZ530>537-291100-
MARINE OBSERVATIONS

STATION/POSITION TIME  TEMP    WIND        PRES
                       AIR SEA DIR/SP/G
                 (UTC) (F)     (DEG/KT/KT) (MB)
THOMAS PT LIGHT  1000   71 71   40/ 10/ 11 1024.0R
BALT KEY BRIDGE  0900   72      50/  8/  9 1023.2R
COVE POINT       0900   71     160/  5/  6 1023.3R
LEWISETTA        0900   71 75              1022.2R
SOLOMONS ISLAND  0900      70                N/A
PINEY POINT      0900          190/  6/  7   N/A

$$




USA.gov is the U.S. government's official web portal to all federal, state and local government web resources and services.